Regional Weather Roundup
Issued by NWS Burlington, VT

Home | Current Version | Previous Version | Text Only | Print | Product List | Glossary On
Versions: 1 2 3 4 5 6 7 8 9 10 11 12 13 14 15 16 17 18 19 20 21 22 23 24 25 26 27 28 29 30 31 32 33 34 35 36 37 38 39 40 41 42 43 44 45 46 47 48 49 50
000
ASUS41 KBTV 291630
RWRBTV
VERMONT REGIONAL WEATHER ROUNDUP
NATIONAL WEATHER SERVICE BURLINGTON VT
1200 PM EDT TUE JUL 29 2014

NOTE: "FAIR" INDICATES FEW OR NO CLOUDS BELOW 12,000 FEET WITH NO
SIGNIFICANT WEATHER AND/OR OBSTRUCTIONS TO VISIBILITY.

* THESE REPORTS ARE NOT UNDER NWS QUALITY CONTROL AND/OR DO NOT
  REPORT WEATHER SUCH AS PRECIPITATION AND FOG.

VTZ001>019-291700-
_____VERMONT_____


CITY           SKY/WX    TMP DP  RH WIND       PRES   REMARKS
BURLINGTON     MOSUNNY   67  51  56 W12       29.85R
MONTPELIER     PTSUNNY   63  50  62 NW12G18   29.88
MORRISVILLE    CLOUDY    65  50  58 NW7       29.86R
ST. JOHNSBURY*   N/A     66  48  52 MISG      29.81R
LYNDONVILLE*     N/A    N/A N/A N/A MISG        N/A
MIDDLEBURY*    PTSUNNY   67  53  59 NW3       29.84S
RUTLAND*       MOSUNNY   64  50  59 W9        29.84S
SPRINGFIELD    MOSUNNY   70  50  49 W14G20    29.82F
HIGHGATE*      PTSUNNY   65  52  64 SW7       29.84R
NEWPORT*       PTSUNNY  N/A N/A N/A W6        29.85R
BENNINGTON     PTSUNNY   67  54  63 VRB5      29.85S
MT. MANSFIELD*   N/A     46 N/A N/A NW16        N/A

_____LAKE CHAMPLAIN_____


CITY           SKY/WX    TMP DP  RH WIND       PRES   REMARKS
COLCHESTER RF*   N/A     64  50  59 NW10        N/A
DIAMOND ISL*     N/A     66  52  59 N8          N/A

$$

NYZ007-026>031-035-052-083-291700-
_____NORTHERN NEW YORK_____


CITY           SKY/WX    TMP DP  RH WIND       PRES   REMARKS
PLATTSBURGH    CLOUDY    66  50  56 CALM      29.84R
SARANAC LAKE   CLOUDY    58  49  72 SW8       29.87S
MASSENA        PTSUNNY   65  53  65 W10       29.87R
OGDENSBURG*    MOSUNNY   68  54  60 W6        29.88R
POTSDAM*       PTSUNNY   64  55  72 NW7       29.88R
WATERTOWN      MOSUNNY   68  50  52 NW7       29.89S
FT DRUM        MOSUNNY   65  54  66 NW6       29.89S
ALBANY         MOSUNNY   70  51  51 W14       29.86S
GLENS FALLS    PTSUNNY   69  50  50 VRB5      29.84S

$$
NHZ002-005-011-291700-
_____NEW HAMPSHIRE_____


CITY           SKY/WX    TMP DP  RH WIND       PRES   REMARKS
LEBANON        MOSUNNY   70  49  47 W9        29.81S
KEENE          PTSUNNY   70  48  46 NW8       29.83R
MT WASHINGTON  FOG       43  43 100 W14G29      N/A  VSB 1/16
PLYMOUTH       FAIR      69  52  54 NW8       29.80R
WHITEFIELD     PTSUNNY   67  52  58 VRB3      29.82S

$$

_____REGIONAL QUEBEC LOCATIONS_____


CITY           SKY/WX    TMP DP  RH WIND       PRES   REMARKS
MONTREAL       PTSUNNY   66  52  59 W10       29.83R
QUEBEC CITY    PTSUNNY   64  55  72 W15       29.75R
SHERBROOKE     PTSUNNY   63  52  67 W13G18    29.81R

_____REGIONAL ONTARIO LOCATIONS_____


CITY           SKY/WX    TMP DP  RH WIND       PRES   REMARKS
OTTAWA         MOSUNNY   66  52  59 VRB12     29.87R

______KEY______
VSB  - VISIBILITY IN MILES
WCI  - WIND CHILL INDEX
HX   - HEAT INDEX
$$



USA.gov is the U.S. government's official web portal to all federal, state and local government web resources and services.